START_TIME,STEP,MOV.,M15,t_acc.,M20,t_acc.
1979-07-28 09:00:43.090 ,0,0,0.,24.0,0.,24.0
1979-07-28 09:01:07.090 ,0,1,0.,24.0,0.,24.0
1979-07-28 09:01:31.090 ,0,0,0.,24.0,0.,24.0
1979-07-28 09:01:55.090 ,1,1,0.,24.0,0.,24.0
1979-07-28 09:02:19.090 ,1,0,0.,24.0,0.,24.0
1979-07-28 09:02:43.090 ,2,1,0.,24.0,0.,24.0
1979-07-28 09:03:07.090 ,2,0,0.,24.0,0.,24.0
1979-07-28 09:03:31.090 ,3,1,0.,24.0,0.,24.0
1979-07-28 09:03:55.090 ,3,0,0.,24.0,0.,24.0
1979-07-28 09:04:19.090 ,4,1,0.,24.0,0.,24.0
1979-07-28 09:04:43.090 ,4,0,0.,24.0,0.,24.0
1979-07-28 09:05:07.090 ,5,1,0.,24.0,0.,24.0
1979-07-28 09:05:31.090 ,5,0,0.,24.0,0.,24.0
1979-07-28 09:05:55.090 ,6,1,0.,24.0,0.,24.0
1979-07-28 09:06:19.090 ,6,0,0.,24.0,0.,24.0
1979-07-28 09:06:43.090 ,7,0,0.,24.0,0.,24.0
1979-07-28 09:07:07.090 ,7,0,1.,24.0,0.,24.0
1979-07-28 09:07:31.090 ,3,1,0.,24.0,0.,24.0
1979-07-28 09:07:55.090 ,0,1,0.,24.0,0.,24.0
1979-07-28 09:08:19.090 ,4,1,0.,24.0,0.,24.0
1979-07-28 09:08:43.090 ,7,1,0.,24.0,0.,24.0
1979-07-28 09:09:07.090 ,3,1,0.,24.0,0.,24.0
1979-07-28 09:09:31.090 ,0,1,0.,24.0,0.,24.0
1979-07-28 09:09:55.090 ,4,1,0.,24.0,0.,24.0
1979-07-28 09:10:19.090 ,7,1,0.,24.0,0.,24.0
1979-07-28 09:10:43.090 ,3,1,0.,24.0,0.,24.0
1979-07-28 09:11:07.090 ,0,1,0.,24.0,0.,24.0
1979-07-28 09:11:31.090 ,4,1,1.,24.0,0.,24.0
1979-07-28 09:11:55.090 ,7,1,0.,24.0,0.,24.0
1979-07-28 09:12:19.090 ,3,1,0.,24.0,0.,24.0
1979-07-28 09:12:43.090 ,0,1,0.,24.0,0.,24.0
1979-07-28 09:13:07.090 ,4,1,0.,24.0,0.,24.0
1979-07-28 09:13:31.090 ,7,1,0.,24.0,0.,24.0
1979-07-28 09:13:55.090 ,3,1,1.,24.0,0.,24.0
1979-07-28 09:14:19.090 ,0,1,0.,24.0,0.,24.0
1979-07-28 09:14:43.090 ,4,1,0.,24.0,0.,24.0
1979-07-28 09:15:07.090 ,7,1,0.,24.0,0.,24.0
1979-07-28 09:15:31.090 ,3,1,0.,24.0,0.,24.0
1979-07-28 09:15:55.090 ,0,1,0.,24.0,0.,24.0
1979-07-28 09:16:19.090 ,4,1,0.,24.0,0.,24.0
1979-07-28 09:16:43.090 ,7,1,0.,24.0,0.,24.0
1979-07-28 09:17:07.090 ,3,1,0.,24.0,0.,24.0
1979-07-28 09:17:31.090 ,0,1,0.,24.0,0.,24.0
1979-07-28 09:17:55.090 ,0,0,0.,24.0,0.,24.0
1979-07-28 09:18:19.090 ,0,0,0.,24.0,0.,24.0
1979-07-28 09:18:43.090 ,5,1,0.,24.0,0.,24.0
1979-07-28 09:19:07.090 ,5,0,0.,24.0,0.,24.0
1979-07-28 09:19:31.090 ,4,1,0.,24.0,0.,24.0
1979-07-28 09:19:55.090 ,4,0,0.,24.0,0.,24.0
1979-07-28 09:20:19.090 ,3,1,0.,24.0,0.,24.0
1979-07-28 09:20:43.090 ,3,0,0.,24.0,0.,24.0
1979-07-28 09:21:07.090 ,2,1,0.,24.0,0.,24.0
1979-07-28 09:21:31.090 ,2,0,0.,24.0,0.,24.0
1979-07-28 09:21:55.090 ,1,1,0.,24.0,0.,24.0
1979-07-28 09:22:19.090 ,1,0,0.,24.0,0.,24.0
1979-07-28 09:22:43.090 ,0,1,0.,24.0,0.,24.0
1979-07-28 09:23:07.090 ,0,0,0.,24.0,0.,24.0
1979-07-28 09:23:31.090 ,0,1,0.,24.0,0.,24.0
1979-07-28 09:23:55.090 ,0,0,0.,24.0,0.,24.0
1979-07-28 09:24:19.090 ,1,1,0.,24.0,0.,24.0
1979-07-28 09:24:43.090 ,1,0,0.,24.0,0.,24.0
1979-07-28 09:25:07.090 ,2,1,0.,24.0,0.,24.0
1979-07-28 09:25:31.090 ,2,0,0.,24.0,0.,24.0
1979-07-28 09:25:55.090 ,3,1,0.,24.0,0.,24.0
1979-07-28 09:26:19.090 ,3,0,0.,24.0,0.,24.0
1979-07-28 09:26:43.090 ,4,1,0.,24.0,0.,24.0
1979-07-28 09:27:07.090 ,4,0,0.,24.0,0.,24.0
1979-07-28 09:27:31.090 ,5,1,0.,24.0,0.,24.0
1979-07-28 09:27:55.090 ,5,0,0.,24.0,0.,24.0
1979-07-28 09:28:19.090 ,6,1,0.,24.0,0.,24.0
1979-07-28 09:28:43.090 ,6,0,0.,24.0,0.,24.0
1979-07-28 09:29:07.090 ,7,1,0.,24.0,0.,24.0
1979-07-28 09:29:31.090 ,7,0,0.,24.0,0.,24.0
1979-07-28 09:29:55.090 ,7,1,0.,24.0,0.,24.0
1979-07-28 09:30:19.090 ,7,0,0.,24.0,0.,24.0
1979-07-28 09:30:43.090 ,6,1,0.,24.0,0.,24.0
1979-07-28 09:31:07.090 ,6,0,0.,24.0,0.,24.0
1979-07-28 09:31:31.090 ,5,1,0.,24.0,0.,24.0
1979-07-28 09:31:55.090 ,5,0,0.,24.0,0.,24.0
1979-07-28 09:32:19.090 ,4,1,0.,24.0,0.,24.0
1979-07-28 09:32:43.090 ,4,0,0.,24.0,0.,24.0
1979-07-28 09:33:07.090 ,3,1,0.,24.0,0.,24.0
1979-07-28 09:33:31.090 ,3,0,0.,24.0,0.,24.0
1979-07-28 09:33:55.090 ,2,1,0.,24.0,0.,24.0
1979-07-28 09:34:19.090 ,2,0,0.,24.0,0.,24.0
1979-07-28 09:34:43.090 ,1,1,0.,24.0,0.,24.0
1979-07-28 09:35:07.090 ,1,0,0.,24.0,0.,24.0
1979-07-28 09:35:31.090 ,0,1,0.,24.0,0.,24.0
1979-07-28 09:35:55.090 ,0,0,0.,24.0,0.,24.0
1979-07-28 09:36:19.090 ,0,1,0.,24.0,0.,24.0
1979-07-28 09:36:43.090 ,0,0,0.,24.0,0.,24.0
1979-07-28 09:37:07.090 ,1,1,0.,24.0,0.,24.0
1979-07-28 09:37:31.090 ,1,0,0.,24.0,0.,24.0
1979-07-28 09:37:55.090 ,2,1,0.,24.0,0.,24.0
1979-07-28 09:38:19.090 ,2,0,0.,24.0,0.,24.0
1979-07-28 09:38:43.090 ,3,1,0.,24.0,0.,24.0
1979-07-28 09:39:07.090 ,3,0,0.,24.0,0.,24.0
1979-07-28 09:39:31.090 ,0,0,,0,,0
1979-07-28 09:39:55.090 ,0,0,0.,24.0,0.,24.0
1979-07-28 09:40:19.090 ,5,1,0.,24.0,0.,24.0
1979-07-28 09:40:43.090 ,5,0,0.,24.0,0.,24.0
1979-07-28 09:41:07.090 ,6,1,0.,24.0,0.,24.0
1979-07-28 09:41:31.090 ,6,0,0.,24.0,0.,24.0
1979-07-28 09:41:55.090 ,7,1,0.,24.0,0.,24.0
1979-07-28 09:42:19.090 ,7,0,0.,24.0,0.,24.0
1979-07-28 09:42:43.090 ,7,1,0.,24.0,0.,24.0
1979-07-28 09:43:07.090 ,7,0,0.,24.0,0.,24.0
1979-07-28 09:43:31.090 ,6,1,0.,24.0,0.,24.0
1979-07-28 09:43:55.090 ,6,0,0.,24.0,0.,24.0
1979-07-28 09:44:19.090 ,5,1,0.,24.0,0.,24.0
1979-07-28 09:44:43.090 ,5,0,0.,24.0,0.,24.0
1979-07-28 09:45:07.090 ,4,1,0.,24.0,0.,24.0
1979-07-28 09:45:31.090 ,4,0,0.,24.0,0.,24.0
1979-07-28 09:45:55.090 ,3,1,0.,24.0,0.,24.0
1979-07-28 09:46:19.090 ,3,0,0.,24.0,0.,24.0
1979-07-28 09:46:43.090 ,2,1,0.,24.0,0.,24.0
1979-07-28 09:47:07.090 ,2,0,0.,24.0,0.,24.0
1979-07-28 09:47:31.090 ,1,1,0.,24.0,0.,24.0
1979-07-28 09:47:55.090 ,1,0,0.,24.0,0.,24.0
1979-07-28 09:48:19.090 ,0,1,0.,24.0,0.,24.0
1979-07-28 09:48:43.090 ,0,0,0.,24.0,0.,24.0
1979-07-28 09:49:07.090 ,0,1,0.,24.0,0.,24.0
1979-07-28 09:49:31.090 ,0,0,0.,24.0,0.,24.0
1979-07-28 09:49:55.090 ,1,1,0.,24.0,0.,24.0
1979-07-28 09:50:19.090 ,1,0,0.,24.0,0.,24.0
1979-07-28 09:50:43.090 ,2,1,0.,24.0,0.,24.0
1979-07-28 09:51:07.090 ,2,0,0.,24.0,0.,24.0
1979-07-28 09:51:31.090 ,3,1,0.,24.0,0.,24.0
1979-07-28 09:51:55.090 ,3,0,0.,24.0,0.,24.0
1979-07-28 09:52:19.090 ,4,1,0.,24.0,0.,24.0
1979-07-28 09:52:43.090 ,4,0,0.,24.0,0.,24.0
1979-07-28 09:53:07.090 ,5,1,0.,24.0,0.,24.0
1979-07-28 09:53:31.090 ,5,0,0.,24.0,0.,24.0
1979-07-28 09:53:55.090 ,6,1,0.,24.0,0.,24.0
1979-07-28 09:54:19.090 ,6,0,0.,24.0,0.,24.0
1979-07-28 09:54:43.090 ,7,0,0.,24.0,0.,24.0
1979-07-28 09:55:07.090 ,7,0,0.,24.0,0.,24.0
1979-07-28 09:55:31.090 ,3,1,0.,24.0,0.,24.0
1979-07-28 09:55:55.090 ,0,1,0.,24.0,0.,24.0
1979-07-28 09:56:19.090 ,4,1,0.,24.0,0.,24.0
1979-07-28 09:56:43.090 ,7,1,0.,24.0,0.,24.0
1979-07-28 09:57:07.090 ,3,1,0.,24.0,0.,24.0
1979-07-28 09:57:31.090 ,0,1,0.,24.0,0.,24.0
1979-07-28 09:57:55.090 ,4,1,0.,24.0,0.,24.0
1979-07-28 09:58:19.090 ,7,1,0.,24.0,0.,24.0
1979-07-28 09:58:43.090 ,3,1,0.,24.0,0.,24.0
1979-07-28 09:59:07.090 ,0,1,0.,24.0,0.,24.0
1979-07-28 09:59:31.090 ,4,1,0.,24.0,0.,24.0
1979-07-28 09:59:55.090 ,7,1,0.,24.0,0.,24.0
1979-07-28 10:00:19.090 ,3,1,0.,24.0,0.,24.0
1979-07-28 10:00:43.090 ,0,1,0.,24.0,0.,24.0
1979-07-28 10:01:07.090 ,4,1,0.,24.0,0.,24.0
1979-07-28 10:01:31.090 ,7,1,0.,24.0,0.,24.0
1979-07-28 10:01:55.090 ,3,1,0.,24.0,0.,24.0
1979-07-28 10:02:19.090 ,0,0,,0,,0
1979-07-28 10:02:43.090 ,0,0,0.,24.0,0.,24.0
1979-07-28 10:03:07.090 ,7,1,0.,24.0,0.,24.0
1979-07-28 10:03:31.090 ,3,1,0.,24.0,0.,24.0
1979-07-28 10:03:55.090 ,0,1,0.,24.0,0.,24.0
1979-07-28 10:04:19.090 ,4,1,0.,24.0,0.,24.0
1979-07-28 10:04:43.090 ,7,1,0.,24.0,0.,24.0
1979-07-28 10:05:07.090 ,3,1,0.,24.0,0.,24.0
1979-07-28 10:05:31.090 ,0,1,0.,24.0,0.,24.0
1979-07-28 10:05:55.090 ,0,0,0.,24.0,0.,24.0
1979-07-28 10:06:19.090 ,0,0,0.,24.0,0.,24.0
1979-07-28 10:06:43.090 ,5,1,0.,24.0,0.,24.0
1979-07-28 10:07:07.090 ,5,0,0.,24.0,0.,24.0
1979-07-28 10:07:31.090 ,4,1,0.,24.0,0.,24.0
1979-07-28 10:07:55.090 ,4,0,0.,24.0,0.,24.0
1979-07-28 10:08:19.090 ,3,1,0.,24.0,0.,24.0
1979-07-28 10:08:43.090 ,3,0,0.,24.0,0.,24.0
1979-07-28 10:09:07.090 ,2,1,0.,24.0,0.,24.0
1979-07-28 10:09:31.090 ,2,0,0.,24.0,0.,24.0
1979-07-28 10:09:55.090 ,1,1,0.,24.0,0.,24.0
1979-07-28 10:10:19.090 ,1,0,0.,24.0,0.,24.0
1979-07-28 10:10:43.090 ,0,1,0.,24.0,0.,24.0
1979-07-28 10:11:07.090 ,0,0,0.,24.0,0.,24.0
1979-07-28 10:11:31.090 ,0,1,0.,24.0,0.,24.0
1979-07-28 10:11:55.090 ,0,0,0.,24.0,0.,24.0
1979-07-28 10:12:19.090 ,1,1,0.,24.0,0.,24.0
1979-07-28 10:12:43.090 ,1,0,0.,24.0,0.,24.0
1979-07-28 10:13:07.090 ,2,1,0.,24.0,0.,24.0
1979-07-28 10:13:31.090 ,2,0,0.,24.0,0.,24.0
1979-07-28 10:13:55.090 ,3,1,0.,24.0,0.,24.0
1979-07-28 10:14:19.090 ,3,0,0.,24.0,0.,24.0
1979-07-28 10:14:43.090 ,4,1,0.,24.0,0.,24.0
1979-07-28 10:15:07.090 ,4,0,0.,24.0,0.,24.0
1979-07-28 10:15:31.090 ,5,1,0.,24.0,0.,24.0
1979-07-28 10:15:55.090 ,5,0,0.,24.0,0.,24.0
1979-07-28 10:16:19.090 ,6,1,0.,24.0,0.,24.0
1979-07-28 10:16:43.090 ,6,0,0.,24.0,0.,24.0
1979-07-28 10:17:07.090 ,7,1,0.,24.0,0.,24.0
1979-07-28 10:17:31.090 ,7,0,0.,24.0,0.,24.0
1979-07-28 10:17:55.090 ,7,1,0.,24.0,0.,24.0
1979-07-28 10:18:19.090 ,7,0,0.,24.0,0.,24.0
1979-07-28 10:18:43.090 ,6,1,0.,24.0,0.,24.0
1979-07-28 10:19:07.090 ,6,0,0.,24.0,0.,24.0
1979-07-28 10:19:31.090 ,5,1,0.,24.0,0.,24.0
1979-07-28 10:19:55.090 ,5,0,0.,24.0,0.,24.0
1979-07-28 10:20:19.090 ,4,1,0.,24.0,0.,24.0
1979-07-28 10:20:43.090 ,4,0,0.,24.0,0.,24.0
1979-07-28 10:21:07.090 ,3,1,0.,24.0,0.,24.0
1979-07-28 10:21:31.090 ,3,0,0.,24.0,0.,24.0
1979-07-28 10:21:55.090 ,2,1,0.,24.0,0.,24.0
1979-07-28 10:22:19.090 ,2,0,0.,24.0,0.,24.0
1979-07-28 10:22:43.090 ,1,1,0.,24.0,0.,24.0
1979-07-28 10:23:07.090 ,1,0,0.,24.0,0.,24.0
1979-07-28 10:23:31.090 ,0,1,0.,24.0,0.,24.0
1979-07-28 10:23:55.090 ,0,0,0.,24.0,0.,24.0
1979-07-28 10:24:19.090 ,0,1,0.,24.0,0.,24.0
1979-07-28 10:24:43.090 ,0,0,0.,24.0,0.,24.0
1979-07-28 10:25:07.090 ,1,1,0.,24.0,0.,24.0
1979-07-28 10:25:31.090 ,1,0,0.,24.0,0.,24.0
1979-07-28 10:25:55.090 ,2,1,0.,24.0,0.,24.0
1979-07-28 10:26:19.090 ,2,0,0.,24.0,0.,24.0
1979-07-28 10:26:43.090 ,3,1,0.,24.0,0.,24.0
1979-07-28 10:27:07.090 ,3,0,0.,24.0,0.,24.0
1979-07-28 10:27:31.090 ,4,1,0.,24.0,0.,24.0
1979-07-28 10:27:55.090 ,4,0,0.,24.0,0.,24.0
1979-07-28 10:28:19.090 ,5,1,0.,24.0,0.,24.0
1979-07-28 10:28:43.090 ,5,0,0.,24.0,0.,24.0
1979-07-28 10:29:07.090 ,6,1,0.,24.0,0.,24.0
1979-07-28 10:29:31.090 ,0,0,1.,24.0,0.,24.0
1979-07-28 10:29:55.090 ,7,1,0.,24.0,0.,24.0
1979-07-28 10:30:19.090 ,7,0,0.,24.0,0.,24.0
1979-07-28 10:30:43.090 ,7,1,0.,24.0,0.,24.0
1979-07-28 10:31:07.090 ,7,0,0.,24.0,0.,24.0
1979-07-28 10:31:31.090 ,6,1,0.,24.0,0.,24.0
1979-07-28 10:31:55.090 ,6,0,0.,24.0,0.,24.0
1979-07-28 10:32:19.090 ,5,1,0.,24.0,0.,24.0
1979-07-28 10:32:43.090 ,5,0,0.,24.0,0.,24.0
1979-07-28 10:33:07.090 ,4,1,0.,24.0,0.,24.0
1979-07-28 10:33:31.090 ,4,0,0.,24.0,0.,24.0
1979-07-28 10:33:55.090 ,3,1,0.,24.0,0.,24.0
1979-07-28 10:34:19.090 ,3,0,0.,24.0,0.,24.0
1979-07-28 10:34:43.090 ,2,1,0.,24.0,0.,24.0
1979-07-28 10:35:07.090 ,2,0,0.,24.0,0.,24.0
1979-07-28 10:35:31.090 ,1,1,0.,24.0,0.,24.0
1979-07-28 10:35:55.090 ,1,0,0.,24.0,0.,24.0
1979-07-28 10:36:19.090 ,0,1,0.,24.0,0.,24.0
1979-07-28 10:36:43.090 ,0,0,0.,24.0,0.,24.0
1979-07-28 10:37:07.090 ,0,1,0.,24.0,0.,24.0
1979-07-28 10:37:31.090 ,0,0,0.,24.0,0.,24.0
1979-07-28 10:37:55.090 ,1,1,0.,24.0,0.,24.0
1979-07-28 10:38:19.090 ,1,0,0.,24.0,0.,24.0
1979-07-28 10:38:43.090 ,0,0,,0,,0
1979-07-28 10:39:07.090 ,0,0,0.,24.0,0.,24.0
1979-07-28 10:39:31.090 ,3,1,0.,24.0,0.,24.0
1979-07-28 10:39:55.090 ,3,0,0.,24.0,0.,24.0
1979-07-28 10:40:19.090 ,4,1,0.,24.0,0.,24.0
1979-07-28 10:40:43.090 ,4,0,0.,24.0,0.,24.0
1979-07-28 10:41:07.090 ,5,1,0.,24.0,0.,24.0
1979-07-28 10:41:31.090 ,5,0,0.,24.0,0.,24.0
1979-07-28 10:41:55.090 ,6,1,0.,24.0,0.,24.0
1979-07-28 10:42:19.090 ,6,0,0.,24.0,0.,24.0
1979-07-28 10:42:43.090 ,7,0,0.,24.0,0.,24.0
1979-07-28 10:43:07.090 ,7,0,0.,24.0,0.,24.0
1979-07-28 10:43:31.090 ,3,1,0.,24.0,0.,24.0
1979-07-28 10:43:55.090 ,0,1,0.,24.0,0.,24.0
1979-07-28 10:44:19.090 ,4,1,0.,24.0,0.,24.0
1979-07-28 10:44:43.090 ,7,1,0.,24.0,0.,24.0
1979-07-28 10:45:07.090 ,3,1,0.,24.0,0.,24.0
1979-07-28 10:45:31.090 ,0,1,0.,24.0,0.,24.0
1979-07-28 10:45:55.090 ,4,1,1.,24.0,0.,24.0
1979-07-28 10:46:19.090 ,7,1,0.,24.0,0.,24.0
1979-07-28 10:46:43.090 ,3,1,0.,24.0,0.,24.0
1979-07-28 10:47:07.090 ,0,1,0.,24.0,0.,24.0
1979-07-28 10:47:31.090 ,4,1,0.,24.0,0.,24.0
1979-07-28 10:47:55.090 ,7,1,0.,24.0,0.,24.0
1979-07-28 10:48:19.090 ,3,1,0.,24.0,0.,24.0
1979-07-28 10:48:43.090 ,0,1,0.,24.0,0.,24.0
1979-07-28 10:49:07.090 ,4,1,0.,24.0,0.,24.0
1979-07-28 10:49:31.090 ,7,1,0.,24.0,0.,24.0
1979-07-28 10:49:55.090 ,3,1,0.,24.0,0.,24.0
1979-07-28 10:50:19.090 ,0,1,0.,24.0,0.,24.0
1979-07-28 10:50:43.090 ,4,1,0.,24.0,0.,24.0
1979-07-28 10:51:07.090 ,7,1,0.,24.0,0.,24.0
1979-07-28 10:51:31.090 ,3,1,0.,24.0,0.,24.0
1979-07-28 10:51:55.090 ,0,1,0.,24.0,0.,24.0
1979-07-28 10:52:19.090 ,4,1,0.,24.0,0.,24.0
1979-07-28 10:52:43.090 ,7,1,0.,24.0,0.,24.0
1979-07-28 10:53:07.090 ,3,1,0.,24.0,0.,24.0
1979-07-28 10:53:31.090 ,0,1,0.,24.0,0.,24.0
1979-07-28 10:53:55.090 ,0,0,0.,24.0,0.,24.0
1979-07-28 10:54:19.090 ,0,0,0.,24.0,0.,24.0
1979-07-28 10:54:43.090 ,5,1,0.,24.0,0.,24.0
1979-07-28 10:55:07.090 ,5,0,0.,24.0,0.,24.0
1979-07-28 10:55:31.090 ,4,1,0.,24.0,0.,24.0
1979-07-28 10:55:55.090 ,4,0,0.,24.0,0.,24.0
1979-07-28 10:56:19.090 ,3,1,0.,24.0,0.,24.0
1979-07-28 10:56:43.090 ,3,0,0.,24.0,0.,24.0
1979-07-28 10:57:07.090 ,2,1,0.,24.0,0.,24.0
1979-07-28 10:57:31.090 ,2,0,0.,24.0,0.,24.0
1979-07-28 10:57:55.090 ,1,1,0.,24.0,0.,24.0
1979-07-28 10:58:19.090 ,1,0,0.,24.0,0.,24.0
1979-07-28 10:58:43.090 ,0,1,0.,24.0,0.,24.0
1979-07-28 10:59:07.090 ,0,0,0.,24.0,0.,24.0
1979-07-28 10:59:31.090 ,0,1,0.,24.0,0.,24.0
1979-07-28 10:59:55.090 ,0,0,0.,24.0,0.,24.0
1979-07-28 11:00:19.090 ,1,1,0.,24.0,0.,24.0
1979-07-28 11:00:43.090 ,1,0,0.,24.0,0.,24.0
1979-07-28 11:01:07.090 ,2,1,0.,24.0,0.,24.0
1979-07-28 11:01:31.090 ,2,0,0.,24.0,0.,24.0
1979-07-28 11:01:55.090 ,3,1,0.,24.0,0.,24.0
1979-07-28 11:02:19.090 ,3,0,0.,24.0,0.,24.0
1979-07-28 11:02:43.090 ,4,1,0.,24.0,0.,24.0
1979-07-28 11:03:07.090 ,4,0,0.,24.0,0.,24.0
1979-07-28 11:03:31.090 ,5,1,0.,24.0,0.,24.0
1979-07-28 11:03:55.090 ,5,0,0.,24.0,0.,24.0
1979-07-28 11:04:19.090 ,6,1,0.,24.0,0.,24.0
1979-07-28 11:04:43.090 ,6,0,0.,24.0,0.,24.0
1979-07-28 11:05:07.090 ,7,1,0.,24.0,0.,24.0
1979-07-28 11:05:31.090 ,7,0,0.,24.0,0.,24.0
1979-07-28 11:05:55.090 ,7,1,0.,24.0,0.,24.0
1979-07-28 11:06:19.090 ,7,0,0.,24.0,0.,24.0
1979-07-28 11:06:43.090 ,6,1,0.,24.0,0.,24.0
1979-07-28 11:07:07.090 ,6,0,0.,24.0,0.,24.0
1979-07-28 11:07:31.090 ,5,1,0.,24.0,0.,24.0
1979-07-28 11:07:55.090 ,5,0,0.,24.0,0.,24.0
1979-07-28 11:08:19.090 ,4,1,0.,24.0,0.,24.0
1979-07-28 11:08:43.090 ,4,0,0.,24.0,0.,24.0
1979-07-28 11:09:07.090 ,3,1,0.,24.0,0.,24.0
1979-07-28 11:09:31.090 ,3,0,0.,24.0,0.,24.0
1979-07-28 11:09:55.090 ,2,1,0.,24.0,0.,24.0
1979-07-28 11:10:19.090 ,2,0,0.,24.0,0.,24.0
1979-07-28 11:10:43.090 ,1,1,0.,24.0,0.,24.0
1979-07-28 11:11:07.090 ,1,0,0.,24.0,0.,24.0
1979-07-28 11:11:31.090 ,0,1,0.,24.0,0.,24.0
1979-07-28 11:11:55.090 ,0,0,0.,24.0,0.,24.0
1979-07-28 11:12:19.090 ,0,1,0.,24.0,0.,24.0
1979-07-28 11:12:43.090 ,0,0,0.,24.0,0.,24.0
1979-07-28 11:13:07.090 ,1,1,0.,24.0,0.,24.0
1979-07-28 11:13:31.090 ,1,0,0.,24.0,0.,24.0
1979-07-28 11:13:55.090 ,2,1,0.,24.0,0.,24.0
1979-07-28 11:14:19.090 ,2,0,0.,24.0,0.,24.0
1979-07-28 11:14:43.090 ,3,1,0.,24.0,0.,24.0
1979-07-28 11:15:07.090 ,3,0,0.,24.0,0.,24.0
1979-07-28 11:15:31.090 ,4,1,0.,24.0,0.,24.0
1979-07-28 11:15:55.090 ,4,0,0.,24.0,0.,24.0
1979-07-28 11:16:19.090 ,5,1,0.,24.0,0.,24.0
1979-07-28 11:16:43.090 ,5,0,0.,24.0,0.,24.0
1979-07-28 11:17:07.090 ,6,1,0.,24.0,0.,24.0
1979-07-28 11:17:31.090 ,6,0,0.,24.0,0.,24.0
1979-07-28 11:17:55.090 ,7,1,0.,24.0,0.,24.0
1979-07-28 11:18:19.090 ,7,0,0.,24.0,0.,24.0
1979-07-28 11:18:43.090 ,7,1,0.,24.0,0.,24.0
1979-07-28 11:19:07.090 ,7,0,0.,24.0,0.,24.0
1979-07-28 11:19:31.090 ,6,1,0.,24.0,0.,24.0
1979-07-28 11:19:55.090 ,6,0,0.,24.0,0.,24.0
1979-07-28 11:20:19.090 ,5,1,0.,24.0,0.,24.0
1979-07-28 11:20:43.090 ,5,0,0.,24.0,0.,24.0
1979-07-28 11:21:07.090 ,4,1,0.,24.0,0.,24.0
1979-07-28 11:21:31.090 ,4,0,0.,24.0,0.,24.0
1979-07-28 11:21:55.090 ,3,1,0.,24.0,0.,24.0
1979-07-28 11:22:19.090 ,3,0,0.,24.0,0.,24.0
1979-07-28 11:22:43.090 ,2,1,0.,24.0,0.,24.0
1979-07-28 11:23:07.090 ,2,0,0.,24.0,0.,24.0
1979-07-28 11:23:31.090 ,1,1,0.,24.0,0.,24.0
1979-07-28 11:23:55.090 ,1,0,0.,24.0,0.,24.0
1979-07-28 11:24:19.090 ,0,1,0.,24.0,0.,24.0
1979-07-28 11:24:43.090 ,0,0,0.,24.0,0.,24.0
1979-07-28 11:25:07.090 ,0,1,0.,24.0,0.,24.0
1979-07-28 11:25:31.090 ,0,0,0.,24.0,0.,24.0
1979-07-28 11:25:55.090 ,1,1,0.,24.0,0.,24.0
1979-07-28 11:26:19.090 ,1,0,0.,24.0,0.,24.0
1979-07-28 11:26:43.090 ,2,1,0.,24.0,0.,24.0
1979-07-28 11:27:07.090 ,2,0,0.,24.0,0.,24.0
1979-07-28 11:27:31.090 ,3,1,0.,24.0,0.,24.0
1979-07-28 11:27:55.090 ,3,0,0.,24.0,0.,24.0
1979-07-28 11:28:19.090 ,4,1,0.,24.0,0.,24.0
1979-07-28 11:28:43.090 ,4,0,0.,24.0,0.,24.0
1979-07-28 11:29:07.090 ,5,1,0.,24.0,0.,24.0
1979-07-28 11:29:31.090 ,5,0,0.,24.0,0.,24.0
1979-07-28 11:29:55.090 ,6,1,0.,24.0,0.,24.0
1979-07-28 11:30:19.090 ,6,0,0.,24.0,0.,24.0
1979-07-28 11:30:43.090 ,7,0,0.,24.0,0.,24.0
1979-07-28 11:31:07.090 ,7,0,0.,24.0,0.,24.0
1979-07-28 11:31:31.090 ,3,1,0.,24.0,0.,24.0
1979-07-28 11:31:55.090 ,0,1,0.,24.0,0.,24.0
1979-07-28 11:32:19.090 ,4,1,0.,24.0,0.,24.0
1979-07-28 11:32:43.090 ,7,1,0.,24.0,0.,24.0
1979-07-28 11:33:07.090 ,3,1,0.,24.0,0.,24.0
1979-07-28 11:33:31.090 ,0,1,0.,24.0,0.,24.0
1979-07-28 11:33:55.090 ,4,1,0.,24.0,0.,24.0
1979-07-28 11:34:19.090 ,7,1,0.,24.0,0.,24.0
1979-07-28 11:34:43.090 ,3,1,0.,24.0,0.,24.0
1979-07-28 11:35:07.090 ,0,1,0.,24.0,0.,24.0
1979-07-28 11:35:31.090 ,4,1,0.,24.0,0.,24.0
1979-07-28 11:35:55.090 ,7,1,0.,24.0,0.,24.0
1979-07-28 11:36:19.090 ,0,0,,0,,0
1979-07-28 11:36:43.090 ,0,0,,0,,0
1979-07-28 11:39:00.490 ,0,0,0.,24.0,0.,24.0
1979-07-28 11:39:07.090 ,7,1,0.,24.0,0.,24.0
1979-07-28 11:39:31.090 ,3,1,0.,24.0,0.,24.0
1979-07-28 11:39:55.090 ,0,1,0.,24.0,0.,24.0
1979-07-28 11:40:19.090 ,4,1,0.,24.0,0.,24.0
1979-07-28 11:40:43.090 ,7,1,0.,24.0,0.,24.0
1979-07-28 11:41:07.090 ,3,1,0.,24.0,0.,24.0
1979-07-28 11:41:31.090 ,0,0,,0,,0
1979-07-28 11:41:55.090 ,0,0,0.,24.0,0.,24.0
1979-07-28 11:42:19.090 ,0,0,0.,24.0,0.,24.0
1979-07-28 11:42:43.090 ,5,1,0.,24.0,0.,24.0
1979-07-28 11:43:07.090 ,5,0,0.,24.0,0.,24.0
1979-07-28 11:43:31.090 ,4,1,0.,24.0,0.,24.0
1979-07-28 11:43:55.090 ,4,0,0.,24.0,0.,24.0
1979-07-28 11:44:19.090 ,3,1,0.,24.0,0.,24.0
1979-07-28 11:44:43.090 ,3,0,0.,24.0,0.,24.0
1979-07-28 11:45:07.090 ,2,1,0.,24.0,0.,24.0
1979-07-28 11:45:31.090 ,2,0,0.,24.0,0.,24.0
1979-07-28 11:45:55.090 ,1,1,0.,24.0,0.,24.0
1979-07-28 11:46:19.090 ,1,0,0.,24.0,0.,24.0
1979-07-28 11:46:43.090 ,0,1,0.,24.0,0.,24.0
1979-07-28 11:47:07.090 ,0,0,0.,24.0,0.,24.0
1979-07-28 11:47:31.090 ,0,1,0.,24.0,0.,24.0
1979-07-28 11:47:55.090 ,0,0,0.,24.0,0.,24.0
1979-07-28 11:48:19.090 ,1,1,0.,24.0,0.,24.0
1979-07-28 11:48:43.090 ,1,0,0.,24.0,0.,24.0
1979-07-28 11:49:07.090 ,2,1,0.,24.0,0.,24.0
1979-07-28 11:49:31.090 ,2,0,0.,24.0,0.,24.0
1979-07-28 11:49:55.090 ,3,1,0.,24.0,0.,24.0
1979-07-28 11:50:19.090 ,3,0,0.,24.0,0.,24.0
1979-07-28 11:50:43.090 ,4,1,0.,24.0,0.,24.0
1979-07-28 11:51:07.090 ,4,0,0.,24.0,0.,24.0
1979-07-28 11:51:31.090 ,5,1,0.,24.0,0.,24.0
1979-07-28 11:51:55.090 ,5,0,0.,24.0,0.,24.0
1979-07-28 11:52:19.090 ,6,1,0.,24.0,0.,24.0
1979-07-28 11:52:43.090 ,6,0,0.,24.0,0.,24.0
1979-07-28 11:53:07.090 ,7,1,0.,24.0,0.,24.0
1979-07-28 11:53:31.090 ,7,0,0.,24.0,0.,24.0
1979-07-28 11:53:55.080 ,7,1,0.,24.0,0.,24.0
1979-07-28 11:54:19.080 ,7,0,0.,24.0,0.,24.0
1979-07-28 11:54:43.080 ,6,1,0.,24.0,0.,24.0
1979-07-28 11:55:07.080 ,6,0,0.,24.0,0.,24.0
1979-07-28 11:55:31.080 ,5,1,0.,24.0,0.,24.0
1979-07-28 11:55:55.080 ,5,0,0.,24.0,0.,24.0
1979-07-28 11:56:19.080 ,4,1,0.,24.0,0.,24.0
1979-07-28 11:56:43.080 ,4,0,0.,24.0,0.,24.0
1979-07-28 11:57:07.080 ,3,1,0.,24.0,0.,24.0
1979-07-28 11:57:31.080 ,3,0,0.,24.0,0.,24.0
1979-07-28 11:57:55.080 ,2,1,0.,24.0,0.,24.0
1979-07-28 11:58:19.080 ,2,0,0.,24.0,0.,24.0
1979-07-28 11:58:43.080 ,1,1,0.,24.0,0.,24.0
1979-07-28 11:59:07.080 ,1,0,0.,24.0,0.,24.0
1979-07-28 11:59:31.080 ,0,1,0.,24.0,0.,24.0
1979-07-28 11:59:55.080 ,0,0,0.,24.0,0.,24.0
1979-07-28 12:00:19.090 ,0,1,0.,24.0,0.,24.0
